Regional Weather Roundup
Issued by NWS

Home | Current Version | Previous Version | Text Only | Print | Product List | Glossary Off
Versions: 1 2 3 4 5 6 7 8 9 10 11 12 13 14 15 16 17 18 19 20 21 22 23 24 25 26 27 28 29 30 31 32 33 34 35 36 37 38 39 40 41 42 43 44 45 46 47 48 49 50

000
ASUS43 KDTX 170601
RWRMI
MICHIGAN HOURLY REGIONAL WEATHER ROUNDUP
NATIONAL WEATHER SERVICE DETROIT/PONTIAC MI
200 AM EDT THU APR 17 2014

NOTE: "FAIR" INDICATES FEW OR NO CLOUDS BELOW 12,000 FEET WITH NO
SIGNIFICANT WEATHER AND/OR OBSTRUCTION TO VISIBILITY.

MIZ047>049-052>055-059>063-066>070-074>076-081>083-170700-
SOUTHEAST LOWER MICHIGAN

CITY           SKY/WX    TMP DP  RH WIND       PRES   REMARKS
ADRIAN         FAIR      32  29  88 SE8       30.33F WCI  25
6HR MIN TEMP:  32; 6HR MAX TEMP:  38;

ALMA           FAIR      34  22  61 E10G18    30.33F WCI  26
ANN ARBOR      FAIR      31  23  72 E10       30.34F WCI  22
BAD AXE        FAIR      32  20  61 SE8       30.39F WCI  25
6HR MIN TEMP:  32; 6HR MAX TEMP:  35;

CARO           FAIR      34  16  46 SE9       30.36F WCI  27
DETROIT CITY   FAIR      36  22  56 SE16      30.38F WCI  26
6HR MIN TEMP:  35; 6HR MAX TEMP:  38;

DETROIT        FAIR      33  24  69 E10       30.37F WCI  25
6HR MIN TEMP:  33; 6HR MAX TEMP:  39;

FLINT          FAIR      32  18  56 SE9       30.35F WCI  24
6HR MIN TEMP:  32; 6HR MAX TEMP:  39;

GROSSE ILE     FAIR      34  27  75 E8        30.36S WCI  27
HILLSDALE      FAIR      35  29  80 SE10G20   30.29S WCI  27
6HR MIN TEMP:  33; 6HR MAX TEMP:  41;

HOWELL         FAIR      31  21  64 SE10      30.32F WCI  23
6HR MIN TEMP:  31; 6HR MAX TEMP:  37;


CITY           SKY/WX    TMP DP  RH WIND       PRES   REMARKS
JACKSON        FAIR      31  24  75 SE14      30.31S WCI  21
6HR MIN TEMP:  31; 6HR MAX TEMP:  40;

LAMBERTVILLE   FAIR      39  32  75 E6        30.34F WCI  35
LANSING        FAIR      33  20  58 SE12      30.32S WCI  24
6HR MIN TEMP:  33; 6HR MAX TEMP:  41;

LAPEER         FAIR      30  16  55 E8G16     30.36F WCI  23
MASON          FAIR      32  22  67 SE9       30.31S WCI  24
MONROE         FAIR      37  30  75 E13       30.34S WCI  29
MT. CLEMENS    FAIR      33  24  68 E16G25    30.37F WCI  23
6HR MIN TEMP:  32; 6HR MAX TEMP:  35;

PONTIAC        FAIR      31  20  63 SE9       30.34F WCI  23
6HR MIN TEMP:  31; 6HR MAX TEMP:  37;

PORT HOPE        N/A     34  24  67 SE14      30.39F WCI  25
6HR MIN TEMP:  34; 6HR MAX TEMP:  36;

PORT HURON     FAIR      30  19  64 E12G17    30.40F WCI  21
TRI CITIES     FAIR      35  21  56 SE12      30.37R WCI  27
6HR MIN TEMP:  34; 6HR MAX TEMP:  42;

TROY           FAIR      34  23  63 E7        30.38S WCI  28
YPSILANTI      FAIR      34  23  64 E9        30.36F WCI  27
6HR MIN TEMP:  34; 6HR MAX TEMP:  40;

$$
MIZ043>046-050>051-056>058-064>065-071>073-077>080-170700-
SOUTHWEST LOWER MICHIGAN

CITY           SKY/WX    TMP DP  RH WIND       PRES   REMARKS
BATTLE CREEK   FAIR      35  25  66 SE13G20   30.28S WCI  26
6HR MIN TEMP:  35; 6HR MAX TEMP:  43;

BENTON HARBOR  FAIR      40  26  57 SE13      30.23R WCI  32
6HR MIN TEMP:  40; 6HR MAX TEMP:  45;

BIG RAPIDS     FAIR      36  22  57 SE12      30.29R WCI  27
6HR MIN TEMP:  36; 6HR MAX TEMP:  42;

COLDWATER      FAIR      34  27  76 SE10      30.28S WCI  26
6HR MIN TEMP:  34; 6HR MAX TEMP:  41;

FREMONT        FAIR      37  24  60 SE10G16   30.28R WCI  30
HOLLAND        FAIR      40  28  62 SE10      30.27R WCI  33
6HR MIN TEMP:  40; 6HR MAX TEMP:  46;

GRAND RAPIDS   FAIR      37  24  59 SE14G25   30.28R WCI  28
6HR MIN TEMP:  37; 6HR MAX TEMP:  45;

KALAMAZOO      FAIR      36  26  67 SE13G18   30.25F WCI  27
6HR MIN TEMP:  36; 6HR MAX TEMP:  45;

LUDINGTON      CLOUDY    39  26  58 SE9G17    30.27R WCI  33
6HR MIN TEMP:  39; 6HR MAX TEMP:  43;

MARSHALL       FAIR      32  26  77 SE6       30.29S WCI  26
MOUNT PLEASANT CLOUDY    34  21  59 E10       30.32F WCI  26
6HR MIN TEMP:  34; 6HR MAX TEMP:  42;

MUSKEGON       FAIR      40  26  57 SE14      30.27R WCI  32
6HR MIN TEMP:  40; 6HR MAX TEMP:  46;

SOUTH HAVEN    FAIR      39  28  63 SE9G18    30.24R WCI  33
$$
MIZ016>042-170700-
NORTHERN LOWER MICHIGAN

CITY           SKY/WX    TMP DP  RH WIND       PRES   REMARKS
ALPENA         CLOUDY    34  24  67 SE12      30.39S WCI  25
6HR MIN TEMP:  32; 6HR MAX TEMP:  34;

BEAVER ISLAND  FLURRIES  33  29  88 NE7       30.33R WCI  26
6HR MIN TEMP:  29; 6HR MAX TEMP:  33;

BELLAIRE       CLOUDY    37  23  57 SE10G33   30.28F WCI  30
6HR MIN TEMP:  35; 6HR MAX TEMP:  38;

CADILLAC       CLOUDY    33  23  64 SE13G18   30.27R WCI  24
CHARLEVOIX     CLOUDY    37  26  63 SE14G23   30.29F WCI  28
6HR MIN TEMP:  33; 6HR MAX TEMP:  37;

FRANKFORT      CLOUDY    39  24  56 SE9       30.28R WCI  33
GAYLORD        CLOUDY    32  22  66 SE14      30.31S WCI  22
6HR MIN TEMP:  31; 6HR MAX TEMP:  34;

GRAYLING       CLOUDY    33  17  52 SE13      30.32F WCI  24
6HR MIN TEMP:  33; 6HR MAX TEMP:  35;

HARBOR SPRINGS CLOUDY    36  26  67 E9        30.30F WCI  29
HOUGHTON LAKE  CLOUDY    33  18  53 SE10      30.33R WCI  25
6HR MIN TEMP:  33; 6HR MAX TEMP:  36;

MANISTEE       CLOUDY    39  21  48 SE10      30.28R WCI  32
OSCODA         CLOUDY    36  23  60 SE6       30.40S WCI  31
PELLSTON       CLOUDY    34  23  64 SE12      30.33F WCI  25
6HR MIN TEMP:  31; 6HR MAX TEMP:  34; 6HR PCP:  0.01;

ROGERS CITY    CLOUDY    34  26  71 SE10G16   30.38S WCI  26
TRAVERSE CITY  CLOUDY    38  21  50 S9G18     30.26S WCI  31
6HR MIN TEMP:  36; 6HR MAX TEMP:  39;

$$
MIZ007>008-015-170700-
EASTERN UPPER MICHIGAN

CITY           SKY/WX    TMP DP  RH WIND       PRES   REMARKS
KINROSS        CLOUDY    30  30 100 E13       30.39S WCI  20
6HR MIN TEMP:  28; 6HR MAX TEMP:  30;

MACKINAC ISLAN CLOUDY    31  27  84 E9G16     30.35S WCI  23
6HR MIN TEMP:  31; 6HR MAX TEMP:  32;

NEWBERRY       LGT SNOW  28  27  96 E9        30.35S WCI  19
6HR MIN TEMP:  27; 6HR MAX TEMP:  28; 6HR PCP:  0.01;

S. S. MARIE    LGT SNOW  29  26  89 E8        30.41F FOG     WCI  21
6HR MIN TEMP:  28; 6HR MAX TEMP:  32; 6HR PCP:  0.21;

$$
MIZ004>006-011>014-085-170700-
CENTRAL UPPER MICHIGAN

CITY           SKY/WX    TMP DP  RH WIND       PRES   REMARKS
MANISTIQUE     CLOUDY    31  29  92 E10       30.31R WCI  22
ESCANABA       CLOUDY    32  27  80 E13       30.26S WCI  22
6HR MIN TEMP:  30; 6HR MAX TEMP:  32;

MENOMINEE      MOCLDY    34  28  80 E10       30.21S WCI  26
6HR MIN TEMP:  30; 6HR MAX TEMP:  34;

SAWYER-GWINN   LGT SNOW  28  27  93 E10       30.24F WCI  19
$$
MIZ001>003-009>011-084-170700-
WESTERN UPPER MICHIGAN

CITY           SKY/WX    TMP DP  RH WIND       PRES   REMARKS
IRON MOUNTAIN  CLOUDY    30  27  88 SE8       30.19S WCI  22
6HR MIN TEMP:  29; 6HR MAX TEMP:  30; 6HR PCP: TRACE;

HOUGHTON       LGT SNOW  28  25  88 E21G28    30.23F VSB 1   WCI  15
6HR MIN TEMP:  27; 6HR MAX TEMP:  28; 6HR PCP: TRACE;

COPPER HARBOR    N/A     29  26  89 S8G21     30.31S WCI  21
6HR MIN TEMP:  29; 6HR MAX TEMP:  30; 6HR PCP:  0.26;

IRONWOOD       CLOUDY    30  27  86 E12       30.06S WCI  21
6HR MIN TEMP:  28; 6HR MAX TEMP:  30;

$$

ABBREVIATIONS USED IN REMARKS
   TC - TEMPERATURE IN CELSIUS
  WCI - WIND CHILL INDEX
   HX - HEAT INDEX
  VSB - VISIBILITY




USA.gov is the U.S. government's official web portal to all federal, state and local government web resources and services.